Location: Newark
(47.5833°N, 8.1500°E)
Time: 23:39:05
(UTC+00:00)

Vanguard 1 - Pass Details

Date: 31 October 2020
Orbit: 650 x 3833 km, 34.2° (Epoch: 29 November)

Event Time Altitude Azimuth Distance (km) Brightness Sun altitude
Rises 10:18:15 0° 215° (SW) 6,815 14.9 27.0°
Reaches altitude 10° 10:22:50 10° 208° (SSW) 6,146 15.0 27.2°
Maximum altitude 10:41:17 40° 148° (SSE) 4,868 15.1 27.7°
Drops below altitude 10° 11:00:50 10° 90° (E) 6,540 14.4 28.0°
Sets 11:05:50 0° 83° (E) 7,277 14.5 28.1°
